Flag for U.S.A. Weather past 2 weeks in Vancouver, Washington, U.S.A.

Now
95 °F

Sunny.


Feels Like: 93 °F
Forecast: 65 / 96 °F
Wind: 13 mph from Northwest

Location: Vancouver - Pearson Airpark

Current Time: Jul 2, 2015 at 4:35:59 PM

Latest Report: Jul 2, 2015 at 3:53 PM


Visibility: 10 mi

Pressure: 29.90 "Hg

Humidity: 24%

Dew point: 53 °F

Location of VancouverLocation

Historic Weather in Vancouver — Graph

°F

Vancouver temperature yesterday

Maximum temperature yesterday: 94 °F (at 4:53 PM)
Minimum temperature yesterday: 62 °F (at 5:53 AM)
Average temperature yesterday: 78 °F

Past Weeks' High & Low Weather Summary

 TemperatureHumidityPressure
High96 °F (Jul 2, 2:53 PM)83% (Jun 30, 4:53 AM)30.16 "Hg (Jun 30, 4:53 AM)
Low53 °F (Jun 20, 5:53 AM)17% (Jun 23, 1:53 PM)29.83 "Hg (Jun 26, 6:53 PM)
Average73 °F51%30.00 "Hg
* Reported Jun 17 2:53 PM — Jul 2 2:53 PM, Vancouver, Weather by CustomWeather, © 2015

Note: Actual official high and low records may vary slightly from our data, if they occured in-between our weather recording intervals... More about our weather records

Advertising

Vancouver weather history for previous 24 hours

 ConditionsComfort  
Time TempWeatherWind HumidityBarometerVisibility
2:53 PM
Thu, Jul 2
96 °FSunny.14 mph25%29.91 "Hg10 mi
1:53 PM92 °FSunny.12 mph30%29.93 "Hg10 mi
12:53 PM89 °FSunny.9 mph34%29.95 "Hg10 mi
11:53 AM85 °FSunny.N/A39%29.96 "Hg10 mi
10:53 AM80 °FSunny.7 mph45%29.97 "Hg10 mi
9:53 AM77 °FSunny.8 mph48%29.98 "Hg10 mi
8:53 AM75 °FSunny.6 mph54%29.99 "Hg10 mi
7:53 AM72 °FSunny.3 mph57%29.99 "Hg10 mi
6:53 AM69 °FSunny.3 mph63%29.98 "Hg10 mi
5:53 AM64 °FClear.No wind70%29.97 "Hg10 mi
4:53 AM63 °FClear.No wind73%29.96 "Hg10 mi
3:53 AM68 °FClear.No wind61%29.95 "Hg10 mi
2:53 AM66 °FClear.No wind68%29.94 "Hg10 mi
1:53 AM66 °FClear.No wind68%29.93 "Hg10 mi
12:53 AM71 °FClear.No wind61%29.93 "Hg10 mi
11:53 PM
Wed, Jul 1
75 °FClear.3 mph54%29.92 "Hg10 mi
10:53 PM79 °FClear.6 mph42%29.91 "Hg10 mi
9:53 PM83 °FSunny.7 mph37%29.89 "Hg10 mi
8:53 PM86 °FSunny.8 mph36%29.87 "Hg10 mi
7:53 PM91 °FSunny.10 mph26%29.85 "Hg10 mi
6:53 PM93 °FSunny.12 mph25%29.84 "Hg10 mi
5:53 PM94 °FSunny.13 mph24%29.85 "Hg10 mi
4:53 PM94 °FSunny.12 mph22%29.86 "Hg10 mi
Weather by CustomWeather, © 2015

See weather overviewHow to use our weather pages